Location: Boiro
(42.6475°N, 8.8834°W)
Time: 08:28:58
(UTC+01:00)

SR - Pass Details

Date: 01 December 2021
Orbit: 583 x 872 km, 66.7° (Epoch: 16 January)

Event Time Altitude Azimuth Distance (km) Brightness Sun altitude
Rises 10:00:18 0° 334° (NNW) 2,820 ? 10.2°
Reaches altitude 10° 10:02:34 10° 340° (NNW) 1,929 ? 10.5°
Maximum altitude 10:06:44 47° 55° (NE) 811 ? 11.0°
Drops below altitude 10° 10:11:06 10° 130° (SE) 2,020 ? 11.6°
Sets 10:13:31 0° 136° (SE) 2,968 ? 11.9°
